This demonstration page uses our WeatherBlox Daily Observations layout. Learn more.

Left ArrowRight Arrow

44.89941, -97.11507

Hourly Observations for July 3, 2016

Temp ( °F °C ) Dew Point ( °F °C ) Humidity (%) Winds ( mph kmh ) Pressure ( in mb ) Visibility ( mi km ) Precip ( " mm )
12:53 am 00:53 Clear 64 17.8 56 13.3 75 75 S 9 15 30.02 1017 10 16 0.00 0.00
1:53 am 01:53 Clear 62 16.7 56 13.3 80 80 SSW 7 11 30.02 1017 10 16 0.00 0.00
2:53 am 02:53 Clear 60 15.6 56 13.3 86 86 SSE 7 11 30.01 1016 10 16 0.00 0.00
3:53 am 03:53 Clear 59 15 55 12.8 87 87 SSE 7 11 30.01 1016 10 16 0.00 0.00
4:53 am 04:53 Clear 58 14.4 54 12.2 87 87 SSE 6 9 30.01 1016 10 16 0.00 0.00
5:53 am 05:53 Sunny 56 13.3 53 11.7 90 90 SSE 6 9 30.01 1016 10 16 0.00 0.00
6:53 am 06:53 Sunny 58 14.4 55 12.8 90 90 SSE 5 7 30.02 1017 10 16 0.00 0.00
7:53 am 07:53 Sunny 61 16.1 56 13.3 84 84 S 8 13 30.03 1017 10 16 0.00 0.00
8:53 am 08:53 Sunny 65 18.3 56 13.3 73 73 S 10 17 30.02 1017 10 16 0.00 0.00
9:53 am 09:53 Sunny 69 20.6 52 11.1 55 55 S 12 19 30.01 1016 10 16 0.00 0.00
10:53 am 10:53 Sunny 72 22.2 52 11.1 50 50 S 13 20 29.99 1016 10 16 0.00 0.00
11:53 am 11:53 Sunny 75 23.9 51 10.6 43 43 SSE 13 20 29.98 1015 10 16 0.00 0.00
12:53 pm 12:53 Sunny 76 24.4 50 10 40 40 S 14 22 29.98 1015 10 16 0.00 0.00
1:53 pm 13:53 Sunny 77 25 50 10 39 39 S 16 26 29.96 1015 10 16 0.00 0.00
2:53 pm 14:53 Sunny 78 25.6 50 10 37 37 S 12 19 29.95 1014 10 16 0.00 0.00
3:53 pm 15:53 Sunny 79 26.1 51 10.6 38 38 S 16 26 29.93 1014 10 16 0.00 0.00
4:53 pm 16:53 Sunny 79 26.1 50 10 36 36 S 14 22 29.91 1013 10 16 0.00 0.00
5:53 pm 17:53 Sunny 79 26.1 51 10.6 38 38 S 15 24 29.90 1012 10 16 0.00 0.00
6:53 pm 18:53 Sunny 77 25 51 10.6 40 40 S 18 30 29.87 1012 10 16 0.00 0.00
7:53 pm 19:53 Sunny 75 23.9 52 11.1 45 45 S 15 24 29.86 1011 10 16 0.00 0.00
8:53 pm 20:53 Sunny 72 22.2 53 11.7 52 52 S 13 20 29.86 1011 10 16 0.00 0.00
9:53 pm 21:53 Clear 69 20.6 54 12.2 59 59 SSE 8 13 29.87 1012 10 16 0.00 0.00
10:53 pm 22:53 Clear 67 19.4 53 11.7 61 61 SSE 10 17 29.86 1011 10 16 0.00 0.00
11:53 pm 23:53 Clear 65 18.3 54 12.2 68 68 SSE 12 19 29.85 1011 10 16 0.00 0.00

Powered by AerisWeather